This demonstration page uses our WeatherBlox Daily Observations layout. Learn more.

Left ArrowRight Arrow

Hourly Observations for January 14, 2017

Temp ( °F °C ) Dew Point ( °F °C ) Humidity (%) Winds ( mph kmh ) Pressure ( in mb ) Visibility ( mi km ) Precip ( " mm )
12:12 am 00:12 Cloudy with Light Rain 34 1 34 1 100 100 Calm 30.48 1032 2 3 0.00 0.00
12:41 am 00:41 Cloudy with Light Rain 34 1.1 33 0.6 97 97 Calm 30.48 1032 2 3 0.01 0.25
12:52 am 00:52 Cloudy with Rain 34 1.1 33 0.6 97 97 NNE 3 6 30.46 1031 2 3 0.02 0.51
1:06 am 01:06 Cloudy with Rain 34 1 34 1 100 100 NNE 3 6 30.48 1032 2 3 0.00 0.00
1:20 am 01:20 Cloudy with Light Rain 34 1 32 0 93 93 NNE 3 6 30.48 1032 3 5 0.00 0.00
1:47 am 01:47 Cloudy with Mist and Fog 34 1 32 0 93 93 N 3 6 30.50 1033 5 8 0.03 0.76
1:52 am 01:52 Cloudy with Mist and Fog 34 1.1 33 0.6 97 97 N 3 6 30.47 1032 5 8 0.03 0.76
2:11 am 02:11 Cloudy with Light Rain 34 1.1 33 0.6 97 97 Calm 30.50 1033 2 3 0.01 0.25
2:24 am 02:24 Cloudy with Light Rain 34 1 32 0 93 93 NE 3 6 30.48 1032 3 5 0.00 0.00
2:52 am 02:52 Cloudy with Mist and Fog 34 1.1 32 0 92 92 NNW 5 7 30.47 1032 4 6 0.01 0.25
3:44 am 03:44 Cloudy with Mist and Fog 33 0.6 32 0 96 96 NNE 5 7 30.48 1032 2 3 0.00 0.00
3:52 am 03:52 Mostly Cloudy with Mist and Fog 33 0.6 32 0 96 96 N 5 7 30.45 1031 1 2 0.00 0.00
4:52 am 04:52 Cloudy with Mist and Fog 33 0.6 32 0 96 96 NNW 6 9 30.47 1032 2 2 0.00 0.00
5:52 am 05:52 Mostly Cloudy with Mist and Fog 33 0.6 32 0 96 96 NNW 6 9 30.47 1032 1 1 0.00 0.00
6:03 am 06:03 Mostly Cloudy with Rain 34 1 32 0 93 93 NNW 5 7 30.50 1033 1 2 0.00 0.00
6:17 am 06:17 Cloudy with Rain 33 0.6 32 0 96 96 N 5 7 30.50 1033 3 4 0.03 0.76
6:33 am 06:33 Cloudy with Light Rain 33 0.6 32 0 96 96 N 6 9 30.50 1033 6 10 0.06 1.52
6:52 am 06:52 Cloudy with Light Rain 33 0.6 32 0 96 96 NW 3 6 30.48 1032 9 14 0.07 1.78
7:52 am 07:52 Cloudy with Light Rain 33 0.6 32 0 96 96 NNW 6 9 30.48 1032 6 10 0.03 0.76
8:48 am 08:48 Cloudy with Heavy Rain 34 1 30 -1 87 87 N 8 13 30.53 1034 2 3 0.00 0.00
8:52 am 08:52 Cloudy with Light Rain 33 0.6 31 -0.6 92 92 N 7 11 30.51 1033 3 4 0.05 1.27
9:00 am 09:00 Cloudy with Rain 33 0.6 31 -0.6 92 92 N 8 13 30.53 1034 3 5 0.01 0.25
9:17 am 09:17 Cloudy with Light Rain 33 0.6 31 -0.6 92 92 N 7 11 30.56 1035 3 5 0.02 0.51
9:23 am 09:23 Cloudy with Light Rain 33 0.6 31 -0.6 92 92 NNE 7 11 30.56 1035 3 4 0.03 0.76
9:31 am 09:31 Cloudy with Light Rain 33 0.6 31 -0.6 92 92 N 8 13 30.53 1034 6 10 0.03 0.76
9:41 am 09:41 Cloudy with Light Rain 33 0.6 32 0 96 96 N 6 9 30.56 1035 7 11 0.03 0.76
9:52 am 09:52 Cloudy with Light Rain 33 0.6 32 0 96 96 N 6 9 30.52 1034 5 8 0.04 1.02
10:52 am 10:52 Cloudy with Mist and Fog 33 0.6 32 0 96 96 NNW 3 6 30.52 1034 4 6 0.01 0.25
11:52 am 11:52 Cloudy 34 1.1 32 0 92 92 NNW 3 6 30.50 1033 7 11 0.02 0.51
12:52 pm 12:52 Cloudy with Light Rain 34 1.1 33 0.6 97 97 N 7 11 30.46 1031 7 11 0.00 0.03
1:20 pm 13:20 Cloudy 36 2 34 1 93 93 NNW 7 11 30.48 1032 10 16 0.00 0.00
1:52 pm 13:52 Cloudy 34 1.1 32 0 92 92 NNE 7 11 30.44 1031 8 13 0.00 0.03
2:04 pm 14:04 Cloudy with Mist and Fog 34 1 32 0 93 93 N 6 9 30.48 1032 6 10 0.00 0.00
2:52 pm 14:52 Cloudy 34 1.1 33 0.6 97 97 N 3 6 30.45 1031 7 11 0.00 0.00
3:52 pm 15:52 Cloudy with Mist and Fog 34 1.1 33 0.6 97 97 NE 3 6 30.44 1031 4 6 0.00 0.00
4:52 pm 16:52 Cloudy with Mist and Fog 34 1.1 32 0 92 92 N 8 13 30.44 1031 2 3 0.00 0.00
5:19 pm 17:19 Cloudy with Mist and Fog 34 1.1 32 0 92 92 NNE 7 11 30.45 1031 1 1 0.00 0.00
5:52 pm 17:52 Mostly Cloudy with Mist and Fog 33 0.6 32 0 96 96 NNE 7 11 30.44 1031 1 1 0.00 0.03
5:59 pm 17:59 Cloudy with Mist and Fog 34 1.1 32 0 92 92 NNE 8 13 30.48 1032 1 2 0.00 0.00
6:18 pm 18:18 Mostly Cloudy with Mist and Fog 33 0.6 32 0 96 96 NE 7 11 30.48 1032 1 1 0.00 0.00
6:52 pm 18:52 Mostly Cloudy with Heavy Rain 33 0.6 33 0.6 100 100 NNE 5 7 30.45 1031 1 1 0.01 0.25
7:00 pm 19:00 Mostly Cloudy with Heavy Rain 34 1 32 0 93 93 N 8 13 30.48 1032 1 2 0.00 0.00
7:18 pm 19:18 Cloudy with Rain 34 1 32 0 93 93 N 7 11 30.48 1032 3 5 0.00 0.00
7:52 pm 19:52 Cloudy with Light Rain 33 0.6 32 0 96 96 NNE 8 13 30.46 1032 7 11 0.28 7.11
8:52 pm 20:52 Cloudy with Light Rain 33 0.6 32 0 96 96 NNE 9 15 30.45 1031 8 13 0.02 0.51
9:52 pm 21:52 Cloudy 34 1.1 32 0 92 92 E 6 9 30.43 1031 10 16 0.01 0.25
10:20 pm 22:20 Cloudy with Light Rain 34 1 32 0 93 93 ENE 5 7 30.45 1031 9 14 0.00 0.00
10:48 pm 22:48 Cloudy with Light Rain 34 1 30 -1 87 87 ENE 7 11 30.45 1031 6 10 0.00 0.00
10:52 pm 22:52 Cloudy with Light Rain 34 1.1 31 -0.6 89 89 ENE 5 7 30.43 1030 6 10 0.02 0.51
10:59 pm 22:59 Cloudy with Heavy Rain 34 1.1 32 0 92 92 NE 3 6 30.45 1031 3 5 0.02 0.51
11:07 pm 23:07 Cloudy with Heavy Rain 34 1.1 32 0 92 92 NE 5 7 30.45 1031 2 3 0.09 2.29
11:20 pm 23:20 Cloudy with Light Rain 34 1 32 0 93 93 E 3 6 30.45 1031 6 10 0.00 0.00
11:42 pm 23:42 Cloudy with Light Rain 34 1 34 1 100 100 ESE 8 13 30.42 1030 4 6 0.00 0.00
11:52 pm 23:52 Cloudy with Rain 34 1.1 33 0.6 97 97 E 8 13 30.39 1029 3 5 0.20 5.08

Powered by AerisWeather